User: anonymous   Login
Location: Columbia
(38.9520°N, 92.3340°W)
Time: 11:54:32
(UTC-05:00)
Language:

FENGYUN 3A - Orbit

View from above orbital plane
View from above orbital plane
View from above satellite
View from above satellite

Ground track
Ground track

The orbit data is extracted from the following two-line orbital elements,

1 32958U 08026A   15182.06565156  .00000002  00000-0  20944-4 0  9999
2 32958 098.5017 232.0285 0009131 194.6204 165.4724 14.19563940367592
Epoch (UTC): 01 July 2015 01:34:32
Eccentricity: 0.0009131
inclination: 98.5017°
perigee height: 820 km
apogee height: 833 km
right ascension of ascending node: 232.0285°
argument of perigee: 194.6204°
revolutions per day: 14.19563940
mean anomaly at epoch: 165.4724°
orbit number at epoch: 36759

The dashed part of the orbit path shows where the satellite is in the earth's shadow,  

DLR